AAL1862 KLAX-KBNA

Flight info

Callsign AAL1862
Flight time 3h 31m
Altitude 33000
Route DOTSS2 CLEEE PKE J96 DRK J78 TCC/N0459F350 J78 IRW WULVS LOPPY CHSNE3
Aircraft A321/M-SDE3FGHIRWY/LB1

Departure

Time 2026-04-20 16:43
Airport Los Angeles International Airport (KLAX)

Arrival

Time 2026-04-20 20:15
Airport Nashville International Airport (KBNA)
Time Latitude Longitude Altitude Speed Heading
2026-04-20 16:18 33.93955 -118.40646 124 ft 0 kts 344°
2026-04-20 16:27 33.93955 -118.40645 124 ft 0 kts 344°
2026-04-20 16:29 33.93953 -118.40645 124 ft 1 kts 344°
2026-04-20 16:29 33.93939 -118.40640 124 ft 2 kts 344°
2026-04-20 16:29 33.93924 -118.40635 124 ft 2 kts 344°
2026-04-20 16:30 33.93910 -118.40633 125 ft 2 kts 24°
2026-04-20 16:30 33.93898 -118.40645 125 ft 2 kts 60°
2026-04-20 16:30 33.93894 -118.40655 125 ft 1 kts 82°
2026-04-20 16:30 33.93894 -118.40663 125 ft 0 kts 84°
2026-04-20 16:33 33.93894 -118.40662 125 ft 1 kts 84°
2026-04-20 16:33 33.93897 -118.40628 125 ft 6 kts 83°
2026-04-20 16:33 33.93901 -118.40562 123 ft 8 kts 108°
2026-04-20 16:34 33.93847 -118.40530 124 ft 9 kts 167°
2026-04-20 16:34 33.93833 -118.40461 123 ft 11 kts 84°
2026-04-20 16:34 33.93843 -118.40357 121 ft 13 kts 83°
2026-04-20 16:34 33.93855 -118.40241 120 ft 14 kts 83°
2026-04-20 16:35 33.93868 -118.40120 119 ft 15 kts 83°
2026-04-20 16:35 33.93881 -118.39993 117 ft 15 kts 83°
2026-04-20 16:35 33.93893 -118.39873 114 ft 12 kts 83°
2026-04-20 16:35 33.93904 -118.39761 112 ft 14 kts 83°
2026-04-20 16:36 33.93917 -118.39634 110 ft 15 kts 83°
2026-04-20 16:36 33.93929 -118.39516 110 ft 13 kts 83°
2026-04-20 16:36 33.93941 -118.39397 108 ft 15 kts 83°
2026-04-20 16:36 33.93955 -118.39267 107 ft 15 kts 83°
2026-04-20 16:37 33.93967 -118.39139 107 ft 15 kts 83°
2026-04-20 16:37 33.93982 -118.39004 104 ft 15 kts 83°
2026-04-20 16:37 33.93994 -118.38875 104 ft 15 kts 83°
2026-04-20 16:37 33.94007 -118.38747 104 ft 15 kts 83°
2026-04-20 16:38 33.94020 -118.38618 104 ft 15 kts 83°
2026-04-20 16:38 33.94033 -118.38492 104 ft 15 kts 83°
2026-04-20 16:38 33.94047 -118.38359 101 ft 13 kts 83°
2026-04-20 16:38 33.94054 -118.38293 101 ft 6 kts 83°
2026-04-20 16:39 33.94060 -118.38227 101 ft 8 kts 83°
2026-04-20 16:39 33.94069 -118.38148 101 ft 10 kts 83°
2026-04-20 16:39 33.94077 -118.38067 101 ft 7 kts 85°
2026-04-20 16:39 33.94076 -118.38036 101 ft 0 kts 102°
2026-04-20 16:40 33.94076 -118.38035 101 ft 0 kts 104°
2026-04-20 16:40 33.94066 -118.38020 101 ft 4 kts 142°
2026-04-20 16:40 33.94025 -118.38004 101 ft 7 kts 173°
2026-04-20 16:40 33.93985 -118.38024 101 ft 5 kts 252°
2026-04-20 16:41 33.93983 -118.38037 101 ft 0 kts 261°
2026-04-20 16:42 33.93983 -118.38038 101 ft 0 kts 261°
2026-04-20 16:42 33.93969 -118.38157 101 ft 45 kts 263°
2026-04-20 16:42 33.93901 -118.38823 104 ft 113 kts 263°
2026-04-20 16:42 33.93779 -118.40022 118 ft 170 kts 263°
2026-04-20 16:43 33.93623 -118.41527 495 ft 188 kts 263°
2026-04-20 16:43 33.93452 -118.43126 1169 ft 191 kts 263°
2026-04-20 16:43 33.93292 -118.44699 1932 ft 189 kts 262°
2026-04-20 16:43 33.92916 -118.46223 2299 ft 199 kts 241°
2026-04-20 16:44 33.92088 -118.47633 2599 ft 214 kts 231°
2026-04-20 16:44 33.91110 -118.49084 2855 ft 232 kts 230°
2026-04-20 16:44 33.90034 -118.50610 3218 ft 247 kts 229°
2026-04-20 16:44 33.88871 -118.52229 3580 ft 263 kts 229°
2026-04-20 16:45 33.87594 -118.54025 4212 ft 269 kts 229°
2026-04-20 16:45 33.86210 -118.55531 4910 ft 269 kts 207°
2026-04-20 16:45 33.84437 -118.56049 5605 ft 268 kts 179°
2026-04-20 16:45 33.82602 -118.55653 6286 ft 269 kts 167°
2026-04-20 16:46 33.80779 -118.55114 6919 ft 272 kts 167°
2026-04-20 16:46 33.78957 -118.54591 7562 ft 273 kts 168°
2026-04-20 16:46 33.77084 -118.54071 8205 ft 275 kts 168°
2026-04-20 16:46 33.75192 -118.53555 8829 ft 277 kts 168°
2026-04-20 16:47 33.73320 -118.53049 9420 ft 280 kts 169°
2026-04-20 16:47 33.71428 -118.52477 10013 ft 283 kts 161°
2026-04-20 16:47 33.69774 -118.51173 10434 ft 295 kts 135°
2026-04-20 16:47 33.68702 -118.49007 10685 ft 314 kts 113°
2026-04-20 16:48 33.67989 -118.46465 10947 ft 329 kts 111°
2026-04-20 16:48 33.67242 -118.43813 11192 ft 342 kts 111°
2026-04-20 16:48 33.66452 -118.41079 11423 ft 355 kts 112°
2026-04-20 16:48 33.65614 -118.38223 11650 ft 368 kts 112°
2026-04-20 16:49 33.64894 -118.35253 11907 ft 380 kts 105°
2026-04-20 16:49 33.64497 -118.32074 12378 ft 386 kts 97°
2026-04-20 16:49 33.64413 -118.28838 12888 ft 389 kts 93°
2026-04-20 16:49 33.64419 -118.25613 13358 ft 393 kts 92°
2026-04-20 16:50 33.64437 -118.22312 13807 ft 396 kts 92°
2026-04-20 16:50 33.64451 -118.18998 14251 ft 399 kts 92°
2026-04-20 16:50 33.64459 -118.15659 14704 ft 402 kts 92°
2026-04-20 16:50 33.64462 -118.12303 15122 ft 406 kts 92°
2026-04-20 16:51 33.64463 -118.08907 15526 ft 409 kts 92°
2026-04-20 16:51 33.64461 -118.05506 15938 ft 412 kts 92°
2026-04-20 16:51 33.64459 -118.02042 16343 ft 415 kts 92°
2026-04-20 16:51 33.64455 -117.98588 16727 ft 419 kts 92°
2026-04-20 16:52 33.64448 -117.95003 17134 ft 421 kts 92°
2026-04-20 16:52 33.64442 -117.91489 17523 ft 424 kts 92°
2026-04-20 16:52 33.64433 -117.87900 17902 ft 427 kts 92°
2026-04-20 16:52 33.64424 -117.84332 18289 ft 429 kts 92°
2026-04-20 16:53 33.64546 -117.80740 18635 ft 434 kts 87°
2026-04-20 16:53 33.64913 -117.77143 18989 ft 437 kts 82°
2026-04-20 16:53 33.65515 -117.73582 19340 ft 440 kts 78°
2026-04-20 16:53 33.66207 -117.69997 19700 ft 443 kts 78°
2026-04-20 16:54 33.66915 -117.66407 20082 ft 444 kts 77°
2026-04-20 16:54 33.67619 -117.62814 20438 ft 446 kts 78°
2026-04-20 16:54 33.68348 -117.59065 20795 ft 448 kts 78°
2026-04-20 16:54 33.69137 -117.54977 21160 ft 451 kts 78°
2026-04-20 16:55 33.69856 -117.51222 21492 ft 453 kts 77°
2026-04-20 16:55 33.70579 -117.47438 21818 ft 455 kts 77°
2026-04-20 16:55 33.71277 -117.43772 22115 ft 457 kts 77°
2026-04-20 16:55 33.71985 -117.40048 22440 ft 459 kts 77°
2026-04-20 16:56 33.72695 -117.36305 22758 ft 461 kts 77°
2026-04-20 16:56 33.73452 -117.32304 23100 ft 463 kts 78°
2026-04-20 16:56 33.74169 -117.28514 23391 ft 464 kts 78°
2026-04-20 16:56 33.74724 -117.24738 23655 ft 466 kts 83°
2026-04-20 16:57 33.75024 -117.20840 23942 ft 467 kts 88°
2026-04-20 16:57 33.75057 -117.16942 24211 ft 469 kts 92°
2026-04-20 16:57 33.74979 -117.13038 24490 ft 470 kts 93°
2026-04-20 16:57 33.74877 -117.09095 24778 ft 471 kts 93°
2026-04-20 16:58 33.74778 -117.05159 25048 ft 473 kts 93°
2026-04-20 16:58 33.74689 -117.01260 25297 ft 475 kts 92°
2026-04-20 16:58 33.74603 -116.97289 25551 ft 476 kts 92°
2026-04-20 16:58 33.74515 -116.93299 25812 ft 478 kts 92°
2026-04-20 16:59 33.74430 -116.89333 26053 ft 479 kts 92°
2026-04-20 16:59 33.74341 -116.85310 26334 ft 480 kts 92°
2026-04-20 16:59 33.74250 -116.81332 26687 ft 479 kts 92°
2026-04-20 16:59 33.74160 -116.77374 27056 ft 477 kts 92°
2026-04-20 17:00 33.73974 -116.69426 27744 ft 475 kts 92°
2026-04-20 17:00 33.73880 -116.65471 28073 ft 474 kts 92°
2026-04-20 17:00 33.73782 -116.61499 28393 ft 473 kts 92°
2026-04-20 17:01 33.73685 -116.57564 28710 ft 473 kts 92°
2026-04-20 17:01 33.73587 -116.53635 29032 ft 472 kts 92°
2026-04-20 17:01 33.73488 -116.49657 29340 ft 471 kts 92°
2026-04-20 17:01 33.73388 -116.45760 29626 ft 471 kts 92°
2026-04-20 17:02 33.73286 -116.41824 29937 ft 470 kts 92°
2026-04-20 17:02 33.73183 -116.37915 30261 ft 469 kts 92°
2026-04-20 17:02 33.73076 -116.33881 30583 ft 468 kts 92°
2026-04-20 17:02 33.72964 -116.29717 30902 ft 467 kts 92°
2026-04-20 17:03 33.72858 -116.25829 31174 ft 466 kts 92°
2026-04-20 17:03 33.72752 -116.21964 31414 ft 466 kts 92°
2026-04-20 17:03 33.72650 -116.17898 31636 ft 467 kts 91°
2026-04-20 17:03 33.72693 -116.13995 31844 ft 468 kts 88°
2026-04-20 17:04 33.72922 -116.10117 32044 ft 469 kts 84°
2026-04-20 17:04 33.73344 -116.06255 32249 ft 469 kts 81°
2026-04-20 17:04 33.73960 -116.02412 32450 ft 469 kts 77°
2026-04-20 17:04 33.74795 -115.98502 32641 ft 470 kts 73°
2026-04-20 17:05 33.75906 -115.94309 32839 ft 470 kts 71°
2026-04-20 17:05 33.77076 -115.90127 33036 ft 471 kts 71°
2026-04-20 17:05 33.78245 -115.85962 33107 ft 472 kts 71°
2026-04-20 17:06 33.80333 -115.78477 33116 ft 472 kts 71°
2026-04-20 17:06 33.82404 -115.70991 33117 ft 472 kts 71°
2026-04-20 17:07 33.84453 -115.63547 33096 ft 473 kts 71°
2026-04-20 17:07 33.86509 -115.56059 33069 ft 472 kts 71°
2026-04-20 17:08 33.88580 -115.48493 33040 ft 473 kts 70°
2026-04-20 17:08 33.90693 -115.40752 33022 ft 473 kts 70°
2026-04-20 17:09 33.92743 -115.33223 33008 ft 473 kts 71°
2026-04-20 17:09 33.94779 -115.25720 32995 ft 473 kts 71°
2026-04-20 17:10 33.96802 -115.18250 32992 ft 473 kts 71°
2026-04-20 17:10 33.98838 -115.10708 32993 ft 473 kts 71°
2026-04-20 17:11 34.00864 -115.03182 32997 ft 473 kts 70°
2026-04-20 17:11 34.02993 -114.95252 32998 ft 472 kts 70°
2026-04-20 17:12 34.05031 -114.87631 32999 ft 472 kts 70°
2026-04-20 17:12 34.07039 -114.80114 32995 ft 472 kts 70°
2026-04-20 17:13 34.09034 -114.72617 33006 ft 471 kts 70°
2026-04-20 17:13 34.11050 -114.65131 33001 ft 471 kts 69°
2026-04-20 17:14 34.13176 -114.57658 33008 ft 471 kts 69°
2026-04-20 17:14 34.15289 -114.50223 33006 ft 471 kts 69°
2026-04-20 17:15 34.17468 -114.42506 33003 ft 470 kts 69°
2026-04-20 17:15 34.19569 -114.35022 33004 ft 470 kts 69°
2026-04-20 17:16 34.21651 -114.27583 33005 ft 470 kts 69°
2026-04-20 17:16 34.23732 -114.20122 33000 ft 469 kts 69°
2026-04-20 17:17 34.25811 -114.12653 32999 ft 468 kts 69°
2026-04-20 17:17 34.27872 -114.05235 33008 ft 468 kts 69°
2026-04-20 17:18 34.29940 -113.97782 33014 ft 468 kts 69°
2026-04-20 17:18 34.32002 -113.90331 33031 ft 467 kts 69°
2026-04-20 17:19 34.34045 -113.82919 33048 ft 467 kts 69°
2026-04-20 17:19 34.36087 -113.75493 33062 ft 467 kts 69°
2026-04-20 17:20 34.38127 -113.68044 33074 ft 466 kts 68°
2026-04-20 17:20 34.40150 -113.60641 33096 ft 465 kts 68°
2026-04-20 17:21 34.42175 -113.53217 33112 ft 465 kts 68°
2026-04-20 17:21 34.44186 -113.45830 33130 ft 464 kts 68°
2026-04-20 17:22 34.46196 -113.38416 33138 ft 464 kts 68°
2026-04-20 17:22 34.48190 -113.31033 33147 ft 463 kts 69°
2026-04-20 17:23 34.50184 -113.23646 33153 ft 462 kts 68°
2026-04-20 17:23 34.52173 -113.16256 33156 ft 461 kts 68°
2026-04-20 17:24 34.54150 -113.08886 33159 ft 461 kts 68°
2026-04-20 17:24 34.56159 -113.01376 33178 ft 460 kts 68°
2026-04-20 17:25 34.58176 -112.93813 33201 ft 459 kts 68°
2026-04-20 17:25 34.60179 -112.86279 33213 ft 458 kts 68°
2026-04-20 17:26 34.62131 -112.78926 33226 ft 458 kts 68°
2026-04-20 17:26 34.64133 -112.71353 33224 ft 458 kts 68°
2026-04-20 17:27 34.66064 -112.64036 33229 ft 457 kts 68°
2026-04-20 17:27 34.68001 -112.56667 33233 ft 457 kts 68°
2026-04-20 17:28 34.69758 -112.49266 33230 ft 460 kts 72°
2026-04-20 17:28 34.70867 -112.41639 33233 ft 463 kts 79°
2026-04-20 17:29 34.71588 -112.33853 33234 ft 463 kts 80°
2026-04-20 17:29 34.72289 -112.26054 33237 ft 462 kts 80°
2026-04-20 17:30 34.72990 -112.18298 33241 ft 462 kts 80°
2026-04-20 17:30 34.73688 -112.10539 33245 ft 462 kts 80°
2026-04-20 17:31 34.74383 -112.02775 33234 ft 461 kts 80°
2026-04-20 17:31 34.75070 -111.95053 33219 ft 461 kts 79°
2026-04-20 17:32 34.75752 -111.87339 33226 ft 461 kts 80°
2026-04-20 17:32 34.76429 -111.79638 33231 ft 461 kts 80°
2026-04-20 17:33 34.77106 -111.71874 33237 ft 461 kts 80°
2026-04-20 17:33 34.77771 -111.64165 33258 ft 461 kts 80°
2026-04-20 17:34 34.78436 -111.56396 33274 ft 461 kts 80°
2026-04-20 17:34 34.79092 -111.48709 33293 ft 460 kts 81°
2026-04-20 17:35 34.79747 -111.40948 33302 ft 460 kts 81°
2026-04-20 17:35 34.80391 -111.33260 33299 ft 460 kts 82°
2026-04-20 17:36 34.81034 -111.25530 33301 ft 460 kts 82°
2026-04-20 17:36 34.81670 -111.17819 33295 ft 460 kts 82°
2026-04-20 17:37 34.82305 -111.10053 33292 ft 459 kts 82°
2026-04-20 17:37 34.82927 -111.02382 33281 ft 460 kts 82°
2026-04-20 17:38 34.83556 -110.94608 33284 ft 460 kts 82°
2026-04-20 17:38 34.84170 -110.86908 33275 ft 460 kts 82°
2026-04-20 17:39 34.84785 -110.79171 33269 ft 460 kts 82°
2026-04-20 17:39 34.85388 -110.71470 33266 ft 459 kts 82°
2026-04-20 17:40 34.85990 -110.63751 33260 ft 459 kts 82°
2026-04-20 17:40 34.86588 -110.56026 33260 ft 459 kts 82°
2026-04-20 17:41 34.87178 -110.48322 33262 ft 458 kts 82°
2026-04-20 17:41 34.87765 -110.40608 33274 ft 458 kts 82°
2026-04-20 17:42 34.88347 -110.32906 33276 ft 458 kts 83°
2026-04-20 17:42 34.88920 -110.25221 33277 ft 458 kts 83°
2026-04-20 17:43 34.89492 -110.17505 33279 ft 458 kts 83°
2026-04-20 17:43 34.90057 -110.09812 33279 ft 458 kts 83°
2026-04-20 17:44 34.90617 -110.02104 33278 ft 458 kts 83°
2026-04-20 17:44 34.91177 -109.94357 33274 ft 458 kts 83°
2026-04-20 17:45 34.91725 -109.86673 33274 ft 457 kts 83°
2026-04-20 17:45 34.92268 -109.78999 33279 ft 457 kts 83°
2026-04-20 17:46 34.92810 -109.71304 33281 ft 456 kts 83°
2026-04-20 17:46 34.93343 -109.63626 33286 ft 456 kts 83°
2026-04-20 17:47 34.93873 -109.55951 33294 ft 456 kts 83°
2026-04-20 17:47 34.94408 -109.48097 33304 ft 456 kts 83°
2026-04-20 17:48 34.94927 -109.40410 33307 ft 455 kts 83°
2026-04-20 17:48 34.95442 -109.32708 33307 ft 455 kts 84°
2026-04-20 17:49 34.95952 -109.25042 33322 ft 454 kts 84°
2026-04-20 17:49 34.96451 -109.17419 33316 ft 454 kts 84°
2026-04-20 17:50 34.96861 -109.09766 33308 ft 454 kts 85°
2026-04-20 17:50 34.97165 -109.02103 33296 ft 454 kts 85°
2026-04-20 17:51 34.97472 -108.94407 33290 ft 454 kts 85°
2026-04-20 17:51 34.97781 -108.86767 33303 ft 453 kts 85°
2026-04-20 17:52 34.98087 -108.79137 33310 ft 452 kts 85°
2026-04-20 17:52 34.98392 -108.71486 33314 ft 451 kts 85°
2026-04-20 17:53 34.98690 -108.63887 33334 ft 450 kts 86°
2026-04-20 17:53 34.98982 -108.56290 33337 ft 450 kts 86°
2026-04-20 17:54 34.99269 -108.48676 33349 ft 449 kts 86°
2026-04-20 17:54 34.99551 -108.41085 33342 ft 450 kts 86°
2026-04-20 17:55 34.99825 -108.33523 33359 ft 450 kts 87°
2026-04-20 17:55 35.00099 -108.25912 33354 ft 449 kts 87°
2026-04-20 17:56 35.00368 -108.18335 33371 ft 449 kts 87°
2026-04-20 17:56 35.00632 -108.10712 33385 ft 450 kts 87°
2026-04-20 17:57 35.00891 -108.03125 33367 ft 450 kts 88°
2026-04-20 17:57 35.01146 -107.95499 33386 ft 452 kts 88°
2026-04-20 17:58 35.01395 -107.87862 33379 ft 452 kts 88°
2026-04-20 17:58 35.01641 -107.80193 33370 ft 451 kts 88°
2026-04-20 17:59 35.01881 -107.72587 33371 ft 451 kts 88°
2026-04-20 17:59 35.02117 -107.64968 33348 ft 451 kts 88°
2026-04-20 18:00 35.02349 -107.57349 33348 ft 451 kts 88°
2026-04-20 18:00 35.02575 -107.49746 33330 ft 451 kts 88°
2026-04-20 18:01 35.02795 -107.42117 33322 ft 452 kts 88°
2026-04-20 18:01 35.03012 -107.34473 33309 ft 453 kts 89°
2026-04-20 18:02 35.03225 -107.26811 33309 ft 452 kts 89°
2026-04-20 18:02 35.03434 -107.19150 33297 ft 453 kts 89°
2026-04-20 18:03 35.03645 -107.11194 33300 ft 455 kts 89°
2026-04-20 18:03 35.03846 -107.03463 33299 ft 456 kts 89°
2026-04-20 18:04 35.04037 -106.95792 33268 ft 456 kts 89°
2026-04-20 18:04 35.04229 -106.88074 33246 ft 457 kts 89°
2026-04-20 18:05 35.04666 -106.76402 33250 ft 457 kts 86°
2026-04-20 18:05 35.05100 -106.68652 33253 ft 458 kts 87°
2026-04-20 18:06 35.05528 -106.60947 33251 ft 458 kts 87°
2026-04-20 18:06 35.05948 -106.53216 33251 ft 457 kts 86°
2026-04-20 18:07 35.06240 -106.47793 33258 ft 458 kts 87°
2026-04-20 18:07 35.06654 -106.40022 33269 ft 457 kts 86°
2026-04-20 18:08 35.07061 -106.32286 33275 ft 458 kts 87°
2026-04-20 18:08 35.07462 -106.24551 33295 ft 459 kts 87°
2026-04-20 18:09 35.07863 -106.16754 33296 ft 459 kts 88°
2026-04-20 18:09 35.08254 -106.08996 33297 ft 462 kts 87°
2026-04-20 18:10 35.08643 -106.01201 33302 ft 463 kts 87°
2026-04-20 18:10 35.09031 -105.93335 33295 ft 463 kts 87°
2026-04-20 18:11 35.09413 -105.85519 33301 ft 462 kts 87°
2026-04-20 18:11 35.09804 -105.77406 33301 ft 463 kts 88°
2026-04-20 18:12 35.10174 -105.69579 33297 ft 464 kts 87°
2026-04-20 18:12 35.10542 -105.61701 33301 ft 466 kts 88°
2026-04-20 18:13 35.10901 -105.53868 33298 ft 466 kts 87°
2026-04-20 18:13 35.11261 -105.45963 33295 ft 467 kts 88°
2026-04-20 18:14 35.11615 -105.38062 33299 ft 469 kts 88°
2026-04-20 18:14 35.11968 -105.30054 33288 ft 468 kts 88°
2026-04-20 18:15 35.12331 -105.21697 33274 ft 468 kts 88°
2026-04-20 18:15 35.12672 -105.13732 33276 ft 469 kts 88°
2026-04-20 18:16 35.13006 -105.05789 33281 ft 470 kts 88°
2026-04-20 18:16 35.13341 -104.97689 33274 ft 471 kts 88°
2026-04-20 18:17 35.13665 -104.89738 33257 ft 471 kts 88°
2026-04-20 18:17 35.13997 -104.81474 33252 ft 471 kts 88°
2026-04-20 18:18 35.14316 -104.73387 33257 ft 472 kts 88°
2026-04-20 18:18 35.14637 -104.65131 33265 ft 472 kts 88°
2026-04-20 18:19 35.14944 -104.57071 33253 ft 471 kts 88°
2026-04-20 18:19 35.15241 -104.49111 33235 ft 472 kts 88°
2026-04-20 18:20 35.15538 -104.41091 33242 ft 473 kts 89°
2026-04-20 18:20 35.15827 -104.33075 33242 ft 472 kts 89°
2026-04-20 18:21 35.16110 -104.25093 33239 ft 472 kts 89°
2026-04-20 18:21 35.16394 -104.16840 33235 ft 473 kts 89°
2026-04-20 18:22 35.16676 -104.08555 33236 ft 474 kts 89°
2026-04-20 18:22 35.16947 -104.00521 33235 ft 474 kts 89°
2026-04-20 18:23 35.17217 -103.92301 33249 ft 474 kts 89°
2026-04-20 18:23 35.17475 -103.84279 33238 ft 474 kts 89°
2026-04-20 18:24 35.17732 -103.76124 33534 ft 476 kts 90°
2026-04-20 18:24 35.17854 -103.72116 33734 ft 476 kts 90°
2026-04-20 18:24 35.17978 -103.68066 33907 ft 476 kts 90°
2026-04-20 18:25 35.18100 -103.64038 34063 ft 476 kts 90°
2026-04-20 18:25 35.18222 -103.59907 34215 ft 477 kts 89°
2026-04-20 18:25 35.18356 -103.55836 34348 ft 478 kts 89°
2026-04-20 18:25 35.18499 -103.51772 34485 ft 479 kts 89°
2026-04-20 18:26 35.18643 -103.47729 34639 ft 478 kts 89°
2026-04-20 18:26 35.18784 -103.43712 34780 ft 479 kts 89°
2026-04-20 18:26 35.18933 -103.39404 34913 ft 480 kts 89°
2026-04-20 18:26 35.19078 -103.35176 35040 ft 481 kts 89°
2026-04-20 18:27 35.19214 -103.31111 35160 ft 481 kts 90°
2026-04-20 18:27 35.19349 -103.27014 35232 ft 482 kts 90°
2026-04-20 18:27 35.19625 -103.18574 35225 ft 482 kts 90°
2026-04-20 18:28 35.19899 -103.09999 35237 ft 481 kts 90°
2026-04-20 18:28 35.20171 -103.01275 35241 ft 482 kts 90°
2026-04-20 18:29 35.20424 -102.93024 35222 ft 480 kts 90°
2026-04-20 18:29 35.20669 -102.84822 35232 ft 481 kts 90°
2026-04-20 18:30 35.20907 -102.76691 35233 ft 481 kts 90°
2026-04-20 18:30 35.21140 -102.68477 35233 ft 482 kts 90°
2026-04-20 18:31 35.21379 -102.59866 35228 ft 482 kts 90°
2026-04-20 18:31 35.21602 -102.51659 35230 ft 482 kts 90°
2026-04-20 18:32 35.21820 -102.43362 35229 ft 483 kts 90°
2026-04-20 18:32 35.22032 -102.35223 35234 ft 481 kts 90°
2026-04-20 18:33 35.22240 -102.26916 35223 ft 480 kts 91°
2026-04-20 18:33 35.22437 -102.18789 35224 ft 481 kts 90°
2026-04-20 18:34 35.22630 -102.10628 35223 ft 480 kts 90°
2026-04-20 18:34 35.22820 -102.02356 35216 ft 481 kts 90°
2026-04-20 18:35 35.23006 -101.94051 35242 ft 482 kts 90°
2026-04-20 18:35 35.23183 -101.85921 35235 ft 480 kts 90°
2026-04-20 18:36 35.23356 -101.77685 35244 ft 481 kts 90°
2026-04-20 18:36 35.23521 -101.69579 35251 ft 480 kts 90°
2026-04-20 18:37 35.23870 -101.61321 35250 ft 481 kts 88°
2026-04-20 18:37 35.24270 -101.53181 35244 ft 481 kts 88°
2026-04-20 18:38 35.24660 -101.44908 35237 ft 481 kts 88°
2026-04-20 18:38 35.25037 -101.36589 35216 ft 480 kts 88°
2026-04-20 18:39 35.25401 -101.28333 35215 ft 480 kts 89°
2026-04-20 18:39 35.25753 -101.20239 35207 ft 480 kts 89°
2026-04-20 18:40 35.26100 -101.12082 35202 ft 481 kts 89°
2026-04-20 18:40 35.26444 -101.03876 35202 ft 481 kts 89°
2026-04-20 18:41 35.26787 -100.95585 35204 ft 481 kts 89°
2026-04-20 18:41 35.27125 -100.87265 35209 ft 482 kts 88°
2026-04-20 18:42 35.27452 -100.79104 35207 ft 481 kts 88°
2026-04-20 18:42 35.27771 -100.70960 35203 ft 480 kts 88°
2026-04-20 18:43 35.28087 -100.62811 35203 ft 481 kts 89°
2026-04-20 18:43 35.28395 -100.54675 35209 ft 482 kts 88°
2026-04-20 18:44 35.28699 -100.46511 35210 ft 481 kts 88°
2026-04-20 18:44 35.28998 -100.38340 35204 ft 481 kts 88°
2026-04-20 18:45 35.29291 -100.30164 35207 ft 482 kts 89°
2026-04-20 18:45 35.29581 -100.21930 35209 ft 481 kts 89°
2026-04-20 18:46 35.29870 -100.13628 35208 ft 481 kts 89°
2026-04-20 18:46 35.30146 -100.05460 35203 ft 482 kts 89°
2026-04-20 18:47 35.30419 -99.97173 35207 ft 482 kts 89°
2026-04-20 18:47 35.30685 -99.88982 35213 ft 483 kts 89°
2026-04-20 18:48 35.30945 -99.80734 35205 ft 483 kts 89°
2026-04-20 18:48 35.31199 -99.72557 35211 ft 483 kts 89°
2026-04-20 18:49 35.31450 -99.64365 35213 ft 484 kts 89°
2026-04-20 18:49 35.31695 -99.56145 35216 ft 483 kts 89°
2026-04-20 18:50 35.31931 -99.47896 35218 ft 484 kts 88°
2026-04-20 18:50 35.32171 -99.39689 35194 ft 483 kts 89°
2026-04-20 18:51 35.32364 -99.31458 35256 ft 485 kts 89°
2026-04-20 18:51 35.32603 -99.23284 35240 ft 484 kts 89°
2026-04-20 18:52 35.32835 -99.15024 35242 ft 485 kts 89°
2026-04-20 18:52 35.33052 -99.06710 35241 ft 486 kts 89°
2026-04-20 18:53 35.33262 -98.98383 35243 ft 486 kts 89°
2026-04-20 18:53 35.33466 -98.89993 35238 ft 486 kts 89°
2026-04-20 18:54 35.33669 -98.81426 35231 ft 486 kts 89°
2026-04-20 18:54 35.33860 -98.72978 35223 ft 486 kts 89°
2026-04-20 18:55 35.34047 -98.64508 35224 ft 487 kts 89°
2026-04-20 18:55 35.34228 -98.56091 35229 ft 488 kts 89°
2026-04-20 18:56 35.34400 -98.47734 35223 ft 488 kts 89°
2026-04-20 18:56 35.34567 -98.39432 35221 ft 489 kts 89°
2026-04-20 18:57 35.34729 -98.31131 35220 ft 489 kts 89°
2026-04-20 18:57 35.34885 -98.22839 35223 ft 489 kts 89°
2026-04-20 18:58 35.35035 -98.14452 35223 ft 489 kts 89°
2026-04-20 18:58 35.35179 -98.06151 35238 ft 488 kts 89°
2026-04-20 18:59 35.35319 -97.97726 35253 ft 490 kts 89°
2026-04-20 18:59 35.35452 -97.89397 35253 ft 490 kts 89°
2026-04-20 19:00 35.35580 -97.81072 35263 ft 491 kts 89°
2026-04-20 19:00 35.35703 -97.72696 35264 ft 491 kts 89°
2026-04-20 19:01 35.35818 -97.64350 35266 ft 491 kts 89°
2026-04-20 19:01 35.36142 -97.56042 35270 ft 491 kts 85°
2026-04-20 19:02 35.36656 -97.47695 35269 ft 491 kts 85°
2026-04-20 19:02 35.37168 -97.39353 35273 ft 490 kts 85°
2026-04-20 19:03 35.37675 -97.30894 35265 ft 491 kts 86°
2026-04-20 19:03 35.38167 -97.22546 35264 ft 492 kts 85°
2026-04-20 19:04 35.38650 -97.14218 35261 ft 491 kts 86°
2026-04-20 19:04 35.39131 -97.05845 35250 ft 492 kts 85°
2026-04-20 19:05 35.39605 -96.97465 35240 ft 491 kts 85°
2026-04-20 19:05 35.40076 -96.89034 35240 ft 491 kts 85°
2026-04-20 19:06 35.40542 -96.80601 35254 ft 492 kts 85°
2026-04-20 19:06 35.41000 -96.72189 35257 ft 492 kts 85°
2026-04-20 19:07 35.41452 -96.63834 35265 ft 493 kts 85°
2026-04-20 19:07 35.41900 -96.55441 35264 ft 493 kts 85°
2026-04-20 19:08 35.42553 -96.42933 35257 ft 494 kts 85°
2026-04-20 19:09 35.43003 -96.34157 35254 ft 494 kts 86°
2026-04-20 19:09 35.43442 -96.25507 35260 ft 494 kts 86°
2026-04-20 19:10 35.43863 -96.17068 35261 ft 494 kts 85°
2026-04-20 19:10 35.44273 -96.08736 35265 ft 494 kts 85°
2026-04-20 19:11 35.44685 -96.00296 35265 ft 494 kts 85°
2026-04-20 19:11 35.45101 -95.91612 35268 ft 495 kts 85°
2026-04-20 19:12 35.45502 -95.83118 35267 ft 495 kts 85°
2026-04-20 19:12 35.45895 -95.74629 35266 ft 496 kts 85°
2026-04-20 19:13 35.46286 -95.66046 35263 ft 496 kts 85°
2026-04-20 19:13 35.46664 -95.57647 35264 ft 497 kts 85°
2026-04-20 19:14 35.47038 -95.49232 35266 ft 497 kts 85°
2026-04-20 19:14 35.47409 -95.40769 35269 ft 497 kts 85°
2026-04-20 19:15 35.47779 -95.32122 35271 ft 498 kts 86°
2026-04-20 19:15 35.48138 -95.23653 35274 ft 498 kts 86°
2026-04-20 19:16 35.48487 -95.15232 35269 ft 498 kts 85°
2026-04-20 19:16 35.48832 -95.06748 35268 ft 499 kts 85°
2026-04-20 19:17 35.49182 -94.98061 35271 ft 499 kts 85°
2026-04-20 19:17 35.49520 -94.89464 35269 ft 500 kts 85°
2026-04-20 19:18 35.49846 -94.80991 35274 ft 500 kts 85°
2026-04-20 19:18 35.50172 -94.72456 35272 ft 501 kts 85°
2026-04-20 19:19 35.50489 -94.63977 35278 ft 501 kts 85°
2026-04-20 19:19 35.50801 -94.55437 35280 ft 502 kts 85°
2026-04-20 19:20 35.51112 -94.46706 35280 ft 503 kts 85°
2026-04-20 19:20 35.51413 -94.38170 35281 ft 502 kts 85°
2026-04-20 19:21 35.51722 -94.29253 35279 ft 503 kts 85°
2026-04-20 19:21 35.52014 -94.20635 35284 ft 504 kts 86°
2026-04-20 19:22 35.52300 -94.11930 35275 ft 504 kts 85°
2026-04-20 19:22 35.52576 -94.03287 35273 ft 505 kts 85°
2026-04-20 19:23 35.52851 -93.94665 35276 ft 506 kts 85°
2026-04-20 19:23 35.53114 -93.86086 35276 ft 507 kts 85°
2026-04-20 19:24 35.53532 -93.77444 35278 ft 506 kts 83°
2026-04-20 19:24 35.54017 -93.68841 35281 ft 508 kts 83°
2026-04-20 19:25 35.54491 -93.60098 35274 ft 508 kts 83°
2026-04-20 19:25 35.54958 -93.51238 35275 ft 508 kts 83°
2026-04-20 19:26 35.55405 -93.42519 35276 ft 508 kts 83°
2026-04-20 19:26 35.55843 -93.33886 35276 ft 509 kts 84°
2026-04-20 19:27 35.56278 -93.25126 35278 ft 509 kts 84°
2026-04-20 19:27 35.56712 -93.16327 35280 ft 510 kts 84°
2026-04-20 19:28 35.57134 -93.07574 35278 ft 509 kts 84°
2026-04-20 19:28 35.57547 -92.98926 35282 ft 510 kts 84°
2026-04-20 19:29 35.57955 -92.90227 35287 ft 510 kts 84°
2026-04-20 19:29 35.58357 -92.81480 35289 ft 510 kts 84°
2026-04-20 19:30 35.58758 -92.72685 35294 ft 510 kts 84°
2026-04-20 19:30 35.59156 -92.63793 35301 ft 511 kts 83°
2026-04-20 19:31 35.59543 -92.55003 35307 ft 511 kts 83°
2026-04-20 19:31 35.59919 -92.46321 35310 ft 511 kts 83°
2026-04-20 19:32 35.60301 -92.37357 35307 ft 511 kts 83°
2026-04-20 19:32 35.60671 -92.28523 35303 ft 510 kts 84°
2026-04-20 19:33 35.61031 -92.19746 35304 ft 510 kts 84°
2026-04-20 19:33 35.61382 -92.11047 35296 ft 510 kts 84°
2026-04-20 19:34 35.61733 -92.02164 35295 ft 509 kts 83°
2026-04-20 19:34 35.62081 -91.93255 35284 ft 510 kts 84°
2026-04-20 19:35 35.62416 -91.84525 35293 ft 511 kts 84°
2026-04-20 19:35 35.62743 -91.75758 35293 ft 511 kts 84°
2026-04-20 19:36 35.63077 -91.66595 35298 ft 511 kts 83°
2026-04-20 19:36 35.63392 -91.57909 35302 ft 512 kts 83°
2026-04-20 19:37 35.63697 -91.49187 35299 ft 511 kts 83°
2026-04-20 19:37 35.63996 -91.40502 35294 ft 511 kts 83°
2026-04-20 19:38 35.64294 -91.31722 35289 ft 511 kts 84°
2026-04-20 19:38 35.64596 -91.22643 35291 ft 512 kts 83°
2026-04-20 19:39 35.64881 -91.13722 35295 ft 512 kts 84°
2026-04-20 19:39 35.65161 -91.04846 35289 ft 512 kts 83°
2026-04-20 19:40 35.65435 -90.96034 35291 ft 513 kts 84°
2026-04-20 19:40 35.65700 -90.87231 35285 ft 514 kts 83°
2026-04-20 19:41 35.65955 -90.78493 35297 ft 514 kts 83°
2026-04-20 19:41 35.66215 -90.69395 35292 ft 513 kts 83°
2026-04-20 19:42 35.66464 -90.60474 35288 ft 514 kts 83°
2026-04-20 19:42 35.66713 -90.51334 35294 ft 514 kts 83°
2026-04-20 19:43 35.66950 -90.42371 35287 ft 515 kts 83°
2026-04-20 19:43 35.67177 -90.33521 35287 ft 515 kts 84°
2026-04-20 19:44 35.67403 -90.24422 35290 ft 515 kts 84°
2026-04-20 19:44 35.67616 -90.15635 35287 ft 515 kts 84°
2026-04-20 19:45 35.67820 -90.06829 35287 ft 515 kts 84°
2026-04-20 19:45 35.68023 -89.98005 35285 ft 516 kts 84°
2026-04-20 19:46 35.68217 -89.88959 35294 ft 515 kts 84°
2026-04-20 19:46 35.68408 -89.80057 35295 ft 515 kts 83°
2026-04-20 19:47 35.68590 -89.71210 35289 ft 514 kts 84°
2026-04-20 19:47 35.68764 -89.62395 35284 ft 515 kts 84°
2026-04-20 19:48 35.68938 -89.53163 35282 ft 516 kts 83°
2026-04-20 19:48 35.69098 -89.44378 35291 ft 515 kts 83°
2026-04-20 19:49 35.69255 -89.35493 35292 ft 515 kts 83°
2026-04-20 19:49 35.69403 -89.26666 35303 ft 515 kts 84°
2026-04-20 19:50 35.69542 -89.17911 35290 ft 514 kts 83°
2026-04-20 19:50 35.69614 -89.13492 35092 ft 515 kts 84°
2026-04-20 19:50 35.69680 -89.09128 34808 ft 513 kts 84°
2026-04-20 19:50 35.69744 -89.04773 34327 ft 511 kts 84°
2026-04-20 19:51 35.69807 -89.00427 33629 ft 512 kts 84°
2026-04-20 19:51 35.69871 -88.95878 32842 ft 513 kts 83°
2026-04-20 19:51 35.69931 -88.91556 32099 ft 513 kts 84°
2026-04-20 19:51 35.69990 -88.87157 31344 ft 513 kts 83°
2026-04-20 19:52 35.70065 -88.82843 30589 ft 512 kts 82°
2026-04-20 19:52 35.70311 -88.78449 29822 ft 507 kts 78°
2026-04-20 19:52 35.70691 -88.73946 29034 ft 504 kts 77°
2026-04-20 19:52 35.71126 -88.69187 28164 ft 503 kts 77°
2026-04-20 19:53 35.71535 -88.64716 27319 ft 501 kts 77°
2026-04-20 19:53 35.71917 -88.60492 26493 ft 500 kts 77°
2026-04-20 19:53 35.72301 -88.56228 25683 ft 497 kts 78°
2026-04-20 19:53 35.72670 -88.52044 25146 ft 489 kts 78°
2026-04-20 19:54 35.73025 -88.47959 24599 ft 482 kts 78°
2026-04-20 19:54 35.73376 -88.43903 24050 ft 474 kts 77°
2026-04-20 19:54 35.73722 -88.39902 23509 ft 467 kts 77°
2026-04-20 19:54 35.74062 -88.35976 22980 ft 460 kts 77°
2026-04-20 19:55 35.74409 -88.31992 22444 ft 454 kts 78°
2026-04-20 19:55 35.74740 -88.28158 21910 ft 449 kts 78°
2026-04-20 19:55 35.75060 -88.24421 21385 ft 444 kts 78°
2026-04-20 19:55 35.75382 -88.20654 20860 ft 439 kts 78°
2026-04-20 19:56 35.75613 -88.16922 20345 ft 437 kts 82°
2026-04-20 19:56 35.75700 -88.13246 19821 ft 434 kts 83°
2026-04-20 19:56 35.75752 -88.09533 19280 ft 431 kts 84°
2026-04-20 19:56 35.75796 -88.05871 18757 ft 428 kts 84°
2026-04-20 19:57 35.75841 -88.02227 18240 ft 425 kts 84°
2026-04-20 19:57 35.75888 -87.98483 17694 ft 423 kts 84°
2026-04-20 19:57 35.75935 -87.94726 17146 ft 420 kts 84°
2026-04-20 19:57 35.75980 -87.91156 16622 ft 418 kts 84°
2026-04-20 19:58 35.76025 -87.87612 16202 ft 412 kts 84°
2026-04-20 19:58 35.76067 -87.84152 15888 ft 403 kts 84°
2026-04-20 19:58 35.76106 -87.80745 15664 ft 392 kts 84°
2026-04-20 19:58 35.76143 -87.77425 15501 ft 380 kts 84°
2026-04-20 19:59 35.76178 -87.74253 15266 ft 371 kts 84°
2026-04-20 19:59 35.76212 -87.71128 15107 ft 360 kts 84°
2026-04-20 19:59 35.76409 -87.68111 14938 ft 344 kts 75°
2026-04-20 19:59 35.76981 -87.65341 14669 ft 332 kts 65°
2026-04-20 20:00 35.77786 -87.62693 14274 ft 329 kts 62°
2026-04-20 20:00 35.78633 -87.60090 13824 ft 328 kts 62°
2026-04-20 20:00 35.79474 -87.57488 13496 ft 325 kts 62°
2026-04-20 20:00 35.80291 -87.54912 13062 ft 324 kts 63°
2026-04-20 20:01 35.81095 -87.52338 12742 ft 319 kts 63°
2026-04-20 20:01 35.81880 -87.49811 12300 ft 320 kts 63°
2026-04-20 20:01 35.82702 -87.47272 11901 ft 316 kts 60°
2026-04-20 20:01 35.83612 -87.44875 11598 ft 310 kts 58°
2026-04-20 20:02 35.84554 -87.42477 11180 ft 308 kts 58°
2026-04-20 20:02 35.85489 -87.40117 10802 ft 306 kts 58°
2026-04-20 20:02 35.86400 -87.37800 10453 ft 303 kts 58°
2026-04-20 20:02 35.87268 -87.35440 10094 ft 303 kts 66°
2026-04-20 20:03 35.87538 -87.32835 9827 ft 306 kts 91°
2026-04-20 20:03 35.87189 -87.30271 9847 ft 297 kts 98°
2026-04-20 20:03 35.86756 -87.27830 9681 ft 289 kts 99°
2026-04-20 20:03 35.86325 -87.25417 9357 ft 287 kts 98°
2026-04-20 20:04 35.85913 -87.23036 9048 ft 284 kts 98°
2026-04-20 20:04 35.85512 -87.20652 8738 ft 281 kts 98°
2026-04-20 20:04 35.85128 -87.18340 8443 ft 278 kts 98°
2026-04-20 20:04 35.84740 -87.16000 8147 ft 275 kts 99°
2026-04-20 20:05 35.84358 -87.13701 7853 ft 272 kts 98°
2026-04-20 20:05 35.83986 -87.11436 7568 ft 269 kts 98°
2026-04-20 20:05 35.83624 -87.09214 7289 ft 266 kts 98°
2026-04-20 20:05 35.83260 -87.06988 7011 ft 265 kts 99°
2026-04-20 20:06 35.82840 -87.04787 6890 ft 264 kts 104°
2026-04-20 20:06 35.82276 -87.02613 6916 ft 266 kts 105°
2026-04-20 20:06 35.81731 -87.00476 6826 ft 261 kts 105°
2026-04-20 20:06 35.81173 -86.98291 6466 ft 263 kts 105°
2026-04-20 20:07 35.80629 -86.96146 6148 ft 262 kts 105°
2026-04-20 20:07 35.80093 -86.94025 5865 ft 259 kts 105°
2026-04-20 20:07 35.79559 -86.91907 5560 ft 258 kts 105°
2026-04-20 20:07 35.79019 -86.89745 5259 ft 256 kts 105°
2026-04-20 20:08 35.78645 -86.87516 5053 ft 250 kts 82°
2026-04-20 20:08 35.79242 -86.85583 4925 ft 240 kts 43°
2026-04-20 20:08 35.80578 -86.84494 4817 ft 232 kts 19°
2026-04-20 20:08 35.82040 -86.83625 4696 ft 233 kts 24°
2026-04-20 20:09 35.83452 -86.82627 4564 ft 233 kts 26°
2026-04-20 20:09 35.84846 -86.81620 4418 ft 233 kts 26°
2026-04-20 20:09 35.86241 -86.80621 4265 ft 233 kts 26°
2026-04-20 20:09 35.87650 -86.79623 4170 ft 232 kts 26°
2026-04-20 20:10 35.89072 -86.78624 4150 ft 232 kts 25°
2026-04-20 20:10 35.90466 -86.77645 4132 ft 233 kts 26°
2026-04-20 20:10 35.91877 -86.76655 4106 ft 233 kts 26°
2026-04-20 20:10 35.93319 -86.75713 3957 ft 230 kts 20°
2026-04-20 20:11 35.94802 -86.74985 3673 ft 227 kts 15°
2026-04-20 20:11 35.96298 -86.74382 3381 ft 225 kts 14°
2026-04-20 20:11 35.97758 -86.73814 3091 ft 217 kts 14°
2026-04-20 20:11 35.99157 -86.73265 2882 ft 202 kts 14°
2026-04-20 20:12 36.00466 -86.72740 2622 ft 189 kts 14°
2026-04-20 20:12 36.01684 -86.72250 2376 ft 174 kts 14°
2026-04-20 20:12 36.02808 -86.71802 2116 ft 162 kts 12°
2026-04-20 20:13 36.04814 -86.71000 1706 ft 146 kts 13°
2026-04-20 20:13 36.05785 -86.70609 1528 ft 146 kts 13°
2026-04-20 20:13 36.06756 -86.70217 1348 ft 145 kts 13°
2026-04-20 20:13 36.07714 -86.69842 1168 ft 146 kts 14°
2026-04-20 20:14 36.08688 -86.69454 1002 ft 146 kts 15°
2026-04-20 20:14 36.09663 -86.69061 796 ft 145 kts 15°
2026-04-20 20:14 36.10620 -86.68684 622 ft 140 kts 15°
2026-04-20 20:14 36.11378 -86.68381 608 ft 74 kts 19°
2026-04-20 20:15 36.11721 -86.68242 608 ft 45 kts 17°
2026-04-20 20:15 36.11969 -86.68129 608 ft 27 kts 47°
2026-04-20 20:15 36.12002 -86.68064 608 ft 6 kts 62°
2026-04-20 20:15 36.12012 -86.68039 608 ft 0 kts 63°
2026-04-20 20:16 36.12017 -86.68028 608 ft 2 kts 63°
2026-04-20 20:16 36.12026 -86.68005 608 ft 4 kts 64°
2026-04-20 20:16 36.12049 -86.67947 608 ft 8 kts 62°
2026-04-20 20:16 36.12079 -86.67876 608 ft 9 kts 63°
2026-04-20 20:17 36.12123 -86.67808 608 ft 11 kts 33°
2026-04-20 20:17 36.12197 -86.67773 608 ft 11 kts 18°
2026-04-20 20:17 36.12278 -86.67740 608 ft 12 kts 17°
2026-04-20 20:17 36.12364 -86.67705 608 ft 13 kts 18°
2026-04-20 20:18 36.12454 -86.67667 608 ft 13 kts 27°
2026-04-20 20:18 36.12528 -86.67590 608 ft 14 kts 43°
2026-04-20 20:18 36.12604 -86.67507 608 ft 14 kts 34°
2026-04-20 20:18 36.12694 -86.67445 608 ft 15 kts 28°
2026-04-20 20:19 36.12776 -86.67361 608 ft 13 kts 43°
2026-04-20 20:19 36.12844 -86.67283 608 ft 13 kts 45°
2026-04-20 20:19 36.12848 -86.67195 608 ft 8 kts 122°
2026-04-20 20:19 36.12816 -86.67141 608 ft 0 kts 129°
2026-04-20 20:20 36.12806 -86.67123 608 ft 3 kts 110°
2026-04-20 20:20 36.12822 -86.67090 608 ft 3 kts 44°
2026-04-20 20:20 36.12833 -86.67078 608 ft 1 kts 42°
2026-04-20 20:20 36.12834 -86.67076 608 ft 0 kts 42°